ZHONGXING-1D

Last updated on Mon Oct 14 2024 00:02:41 GMT+0000 (Coordinated Universal Time)

1 49505U 21114A 24287.53884837 -.00000338 00000+0 00000+0 0 9994 2 49505 0.0539 47.2950 0001960 227.7790 71.6787 1.00270411 10697
UTC large
Height (km)
Speed (km/s)
/
Latitude / Longitude
Inclination (degrees)
Orbital Period (minutes)
Azimuth
Elevation
Range (km)
Doppler Factor

Next 0 passes for location: London (51.5072 / 0.1276)

Sorry there are no passes over London.